Satellite-Ground Cal/Val Site Overpasses Predictions

Prediction of Satellite NPP Overpassing Cal/Val Site: Antarctic Dome C

Ground Cal/Val Site Location: Latitude: -75.10, Longitude: 123.35; Satellite-Ground Site NADIR distance within 100 km.

Table of predicted overpasses for the next 14.0 days since TLE Epoch: 3/20/2021
Interval Starting Time Ending Time Minimum Distance Time Minimum Distance (km)
1 03/20/2021 07:43:34 03/20/2021 07:43:54 03/20/2021 07:43:44 70.34
2 03/21/2021 07:24:40 03/21/2021 07:25:07 03/21/2021 07:24:54 37.63
3 03/23/2021 15:07:06 03/23/2021 15:07:14 03/23/2021 15:07:10 95.48
4 03/24/2021 14:48:06 03/24/2021 14:48:35 03/24/2021 14:48:20 15.77
5 03/26/2021 07:30:54 03/26/2021 07:31:24 03/26/2021 07:31:09 1.38
6 03/29/2021 14:54:20 03/29/2021 14:54:49 03/29/2021 14:54:34 20.67
7 03/30/2021 14:35:38 03/30/2021 14:35:53 03/30/2021 14:35:45 86.48
8 03/31/2021 07:37:10 03/31/2021 07:37:38 03/31/2021 07:37:24 34.79
